Time,TemperatureF,DewpointF,PressureIn,WindDirection,WindDirectionDegrees,WindSpeedMPH,WindSpeedGustMPH,Humidity,HourlyPrecipIn,Conditions,Clouds,dailyrainin,SolarRadiationWatts/m^2,SoftwareType,DateUTC
2017-09-22 00:01:00,80.1,72.0,29.82,WSW,237,4.0,8.0,76,0.00,,,0.00,0,weatherlink.com 1.10,2017-09-22 05:01:00,
2017-09-22 00:16:00,79.9,72.0,29.83,SSE,147,3.0,5.0,77,0.00,,,0.00,0,weatherlink.com 1.10,2017-09-22 05:16:00,
2017-09-22 00:31:00,79.6,72.0,29.83,SE,130,3.0,7.0,77,0.00,,,0.00,0,weatherlink.com 1.10,2017-09-22 05:31:00,
2017-09-22 00:46:00,79.3,72.0,29.83,SSE,161,1.0,7.0,77,0.00,,,0.00,0,weatherlink.com 1.10,2017-09-22 05:46:00,
2017-09-22 01:01:00,79.0,71.0,29.84,SSE,148,4.0,7.0,77,0.00,,,0.00,0,weatherlink.com 1.10,2017-09-22 06:01:00,
2017-09-22 01:16:00,78.6,71.0,29.84,SSW,192,1.0,4.0,78,0.00,,,0.00,0,weatherlink.com 1.10,2017-09-22 06:16:00,
2017-09-22 01:31:00,78.1,71.0,29.84,SSW,206,3.0,5.0,78,0.00,,,0.00,0,weatherlink.com 1.10,2017-09-22 06:31:00,
2017-09-22 01:46:00,77.8,71.0,29.84,SSE,167,4.0,6.0,79,0.00,,,0.00,0,weatherlink.com 1.10,2017-09-22 06:46:00,
2017-09-22 02:01:00,77.4,70.0,29.84,SE,140,1.0,4.0,79,0.00,,,0.00,0,weatherlink.com 1.10,2017-09-22 07:01:00,
2017-09-22 02:16:00,77.0,70.0,29.84,SE,132,1.0,5.0,80,0.00,,,0.00,0,weatherlink.com 1.10,2017-09-22 07:16:00,
2017-09-22 02:31:00,76.7,71.0,29.84,SSW,213,0.0,5.0,81,0.00,,,0.00,0,weatherlink.com 1.10,2017-09-22 07:31:00,
2017-09-22 02:46:00,76.4,70.0,29.84,South,190,0.0,3.0,81,0.00,,,0.00,0,weatherlink.com 1.10,2017-09-22 07:46:00,
2017-09-22 03:01:00,76.1,70.0,29.84,South,181,0.0,7.0,82,0.00,,,0.00,0,weatherlink.com 1.10,2017-09-22 08:01:00,
2017-09-22 03:16:00,75.8,70.0,29.84,SSE,147,1.0,5.0,82,0.00,,,0.00,0,weatherlink.com 1.10,2017-09-22 08:16:00,
2017-09-22 03:31:00,75.6,70.0,29.84,ESE,115,0.0,6.0,83,0.00,,,0.00,0,weatherlink.com 1.10,2017-09-22 08:31:00,
2017-09-22 03:46:00,75.3,70.0,29.84,SSE,165,2.0,3.0,83,0.00,,,0.00,0,weatherlink.com 1.10,2017-09-22 08:46:00,
2017-09-22 04:01:00,75.1,70.0,29.84,ESE,103,2.0,3.0,83,0.00,,,0.00,0,weatherlink.com 1.10,2017-09-22 09:01:00,
2017-09-22 04:16:00,74.9,70.0,29.84,ESE,105,1.0,3.0,84,0.00,,,0.00,0,weatherlink.com 1.10,2017-09-22 09:16:00,
2017-09-22 04:31:00,74.8,70.0,29.84,ESE,116,0.0,5.0,84,0.00,,,0.00,0,weatherlink.com 1.10,2017-09-22 09:31:00,
2017-09-22 04:46:00,74.8,70.0,29.84,SSE,166,0.0,8.0,84,0.00,,,0.00,0,weatherlink.com 1.10,2017-09-22 09:46:00,
2017-09-22 05:01:00,74.6,70.0,29.84,South,178,1.0,5.0,85,0.00,,,0.00,0,weatherlink.com 1.10,2017-09-22 10:01:00,
2017-09-22 05:16:00,74.4,70.0,29.85,SSE,153,0.0,5.0,85,0.00,,,0.00,0,weatherlink.com 1.10,2017-09-22 10:16:00,
2017-09-22 05:31:00,74.3,70.0,29.85,South,169,1.0,5.0,85,0.00,,,0.00,0,weatherlink.com 1.10,2017-09-22 10:31:00,
2017-09-22 05:46:00,74.2,70.0,29.85,SSE,159,1.0,7.0,85,0.00,,,0.00,0,weatherlink.com 1.10,2017-09-22 10:46:00,
2017-09-22 06:01:00,74.1,70.0,29.85,SSW,211,2.0,5.0,86,0.00,,,0.00,0,weatherlink.com 1.10,2017-09-22 11:01:00,
2017-09-22 06:16:00,73.9,70.0,29.86,SE,143,2.0,7.0,86,0.00,,,0.00,0,weatherlink.com 1.10,2017-09-22 11:16:00,
2017-09-22 06:31:00,73.7,69.0,29.86,SE,145,0.0,6.0,86,0.00,,,0.00,0,weatherlink.com 1.10,2017-09-22 11:31:00,
2017-09-22 06:46:00,73.4,69.0,29.86,SE,140,3.0,5.0,87,0.00,,,0.00,0,weatherlink.com 1.10,2017-09-22 11:46:00,
2017-09-22 07:01:00,73.1,69.0,29.86,SE,131,0.0,6.0,87,0.00,,,0.00,0,weatherlink.com 1.10,2017-09-22 12:01:00,
2017-09-22 07:17:00,73.0,69.0,29.87,ESE,107,2.0,7.0,88,0.00,,,0.00,12,weatherlink.com 1.10,2017-09-22 12:17:00,
2017-09-22 07:32:00,73.1,69.0,29.87,ENE,76,1.0,5.0,88,0.00,,,0.00,23,weatherlink.com 1.10,2017-09-22 12:32:00,
2017-09-22 07:46:00,73.3,70.0,29.87,East,86,2.0,7.0,88,0.00,,,0.00,30,weatherlink.com 1.10,2017-09-22 12:46:00,
2017-09-22 08:01:00,73.6,70.0,29.87,SSE,166,1.0,6.0,88,0.00,,,0.00,37,weatherlink.com 1.10,2017-09-22 13:01:00,
2017-09-22 08:16:00,73.9,70.0,29.87,NE,53,2.0,8.0,87,0.00,,,0.00,88,weatherlink.com 1.10,2017-09-22 13:16:00,
2017-09-22 08:32:00,74.4,70.0,29.88,WSW,243,2.0,10.0,87,0.00,,,0.00,165,weatherlink.com 1.10,2017-09-22 13:32:00,
2017-09-22 08:47:00,75.1,71.0,29.88,ESE,107,2.0,10.0,86,0.00,,,0.00,120,weatherlink.com 1.10,2017-09-22 13:47:00,
2017-09-22 09:02:00,76.0,71.0,29.88,South,169,9.0,10.0,84,0.00,,,0.00,137,weatherlink.com 1.10,2017-09-22 14:02:00,
2017-09-22 09:17:00,76.7,71.0,29.89,South,186,1.0,7.0,82,0.00,,,0.00,297,weatherlink.com 1.10,2017-09-22 14:17:00,
2017-09-22 09:32:00,77.5,71.0,29.89,SE,136,2.0,9.0,81,0.00,,,0.00,236,weatherlink.com 1.10,2017-09-22 14:32:00,
2017-09-22 09:47:00,78.3,72.0,29.89,East,80,1.0,9.0,80,0.00,,,0.00,376,weatherlink.com 1.10,2017-09-22 14:47:00,
2017-09-22 10:02:00,79.3,72.0,29.89,ESE,102,3.0,11.0,77,0.00,,,0.00,422,weatherlink.com 1.10,2017-09-22 15:02:00,
2017-09-22 10:17:00,80.3,72.0,29.89,SSE,165,2.0,8.0,76,0.00,,,0.00,464,weatherlink.com 1.10,2017-09-22 15:17:00,
2017-09-22 10:32:00,81.7,73.0,29.89,WSW,257,1.0,8.0,74,0.00,,,0.00,503,weatherlink.com 1.10,2017-09-22 15:32:00,
2017-09-22 10:47:00,82.3,73.0,29.89,SSW,193,3.0,8.0,73,0.00,,,0.00,538,weatherlink.com 1.10,2017-09-22 15:47:00,
2017-09-22 11:02:00,82.9,73.0,29.89,SSW,194,4.0,7.0,71,0.00,,,0.00,573,weatherlink.com 1.10,2017-09-22 16:02:00,
2017-09-22 11:17:00,83.9,73.0,29.89,SW,228,2.0,11.0,69,0.00,,,0.00,603,weatherlink.com 1.10,2017-09-22 16:17:00,
2017-09-22 11:33:00,84.8,73.0,29.89,SSW,211,1.0,10.0,68,0.00,,,0.00,631,weatherlink.com 1.10,2017-09-22 16:33:00,
2017-09-22 11:47:00,85.7,73.0,29.89,SE,144,1.0,10.0,65,0.00,,,0.00,654,weatherlink.com 1.10,2017-09-22 16:47:00,
2017-09-22 12:02:00,86.1,73.0,29.89,South,171,4.0,9.0,64,0.00,,,0.00,679,weatherlink.com 1.10,2017-09-22 17:02:00,
2017-09-22 12:18:00,86.8,74.0,29.88,South,174,1.0,13.0,65,0.00,,,0.00,698,weatherlink.com 1.10,2017-09-22 17:18:00,